Regional Weather Roundup
Issued by NWS

Home | Current Version | Previous Version | Text Only | Print | Product List | Glossary On
Versions: 1 2 3 4 5 6 7 8 9 10 11 12 13 14 15 16 17 18 19 20 21 22 23 24 25 26 27
000
ASUS45 KBOU 201506
RWRCO

WEATHER ROUNDUP FOR COLORADO
NATIONAL WEATHER SERVICE DENVER/BOULDER CO
900 AM MDT SUN APR 20 2014

NOTE: "FAIR" INDICATES FEW OR NO CLOUDS BELOW 12000 FEET WITH NO
SIGNIFICANT WEATHER AND/OR OBSTRUCTIONS TO VISIBILITY.

COZ001>005-013-030-031-201600-
...NORTHWEST COLORADO...

CITY           SKY/WX    TMP DP  RH WIND       PRES   REMARKS
CRAIG          MOSUNNY   44  39  82 CALM      30.18S
HAYDEN         MOSUNNY   45  36  70 E7        30.21R
MEEKER         MOSUNNY   47  38  71 CALM      30.19R
MOUNT WERNER   MOSUNNY   37  32  81 NW8       30.32R
STEAMBOAT SPGS MOSUNNY   43  33  69 CALM      30.19F
WALDEN         SUNNY     37  32  81 E3        30.22R
$$

COZ006>008-011-201600-
...WEST CENTRAL VALLEYS...

CITY           SKY/WX    TMP DP  RH WIND       PRES   REMARKS
GRAND JUNCTION SUNNY     54  41  61 S8        30.14R
MONTROSE       SUNNY     50  40  68 CALM      30.19R
EAGLE          PTSUNNY   46  39  76 CALM      30.22S
RIFLE          MOSUNNY   47  38  71 CALM      30.18S
DELTA          MOSUNNY   50  39  66 CALM      30.17S
NUCLA            N/A     46  37  71 CALM      30.22S
$$

COZ017>023-064>068-201600-
...SOUTHWEST COLORADO...

CITY           SKY/WX    TMP DP  RH WIND       PRES   REMARKS
DURANGO        MOSUNNY   49  34  56 CALM      30.16R
CORTEZ         SUNNY     54  38  54 NE5       30.17R
PAGOSA SPRINGS MOSUNNY   44  33  66 CALM      30.19S
TELLURIDE      MOSUNNY   43  34  70 CALM      30.26R
WOLF CREEK PAS PTSUNNY   32  27  80 NE14G20   30.32R WCI  22
$$

COZ009-010-012-014-032>034-037-058>063-201600-
...CENTRAL COLORADO...

CITY           SKY/WX    TMP DP  RH WIND       PRES   REMARKS
ASPEN          MOSUNNY   46  34  62 S5        30.21S
BUENA VISTA    MOSUNNY   49  34  56 W8        30.19S
COPPER MTN     FOG       34  30  86 W13       30.35R VSB 1/2 WCI  25
BERTHOUD PASS  HAZE      27  18  69 N8        30.37R VSB<1/4 WCI  18
COTTONWOOD PAS MOSUNNY   43  28  56 W3        30.25S
GUNNISON       MOSUNNY   39  32  75 CALM      30.26S
KREMMLING      CLOUDY    41  34  75 CALM      30.24S
LEADVILLE      CLOUDY    36  32  85 N10       30.27R
MONARCH PASS   PTSUNNY   30  28  93 MISG      30.42R
SALIDA         MOSUNNY   45  37  73 CALM      30.27R
SUNLIGHT       PTSUNNY   37  34  87 CALM      30.34R
WILKERSON PASS MOSUNNY   34  30  86 NE12G17   30.32R WCI  25
$$

COZ069>075-201600-
...SAN LUIS VALLEY/SANGRE DE CRISTO MOUNTAINS...

CITY           SKY/WX    TMP DP  RH WIND       PRES   REMARKS
ALAMOSA        CLOUDY    45  40  82 CALM      30.17R
LA VETA PASS   SNOW      34  34 100 NW5       30.25R VSB 1/4 WCI  30
SAGUACHE       PTSUNNY   50  34  53 NW18      30.19R
$$

COZ035-036-038>040-201600-
...NORTHERN COLORADO FRONT RANGE...

CITY           SKY/WX    TMP DP  RH WIND       PRES   REMARKS
DENVER INTL AP PTSUNNY   51  42  71 W10       30.08R
DMNS CITY PARK   N/A     53  41  64 W2        30.08S
AURORA         PTSUNNY   52  41  66 SW8       30.09R
FRONT RANGE AP NOT AVBL
ERIE MUNI ARPT MOSUNNY   53  43  68 CALM      30.08R
BOULDER MUN AP PTSUNNY   55  41  58 S3        30.07S
CENTENNIAL     PTSUNNY   51  39  63 W8        30.09S
BROOMFIELD     NOT AVBL
FORT COLLINS   SUNNY     54  41  62 S3        30.08S
LONGMONT       MOSUNNY   57  46  65 CALM      30.08S
$$

COZ041-046-047-076>085-087-088-201600-
...PIKES PEAK/PALMER DIVIDE AND SOUTHERN FOOTHILLS...

CITY           SKY/WX    TMP DP  RH WIND       PRES   REMARKS
COLO. SPRINGS  PTSUNNY   54  37  52 NW6       30.10R
A. F. ACADEMY  PTSUNNY   57  35  43 N14       30.10S
ELLICOTT       NOT AVBL
FALCON         PTSUNNY   52  35  52 NE6       30.12S
FORT CARSON    PTSUNNY   53  39  59 N7        30.08R
LIMON          CLOUDY    52  42  69 N17       30.06S
MONUMENT HILL  CLOUDY    46  36  66 NW7       30.13R
TRINIDAD       CLOUDY    51  45  79 W15       30.07F
$$

COZ042>045-048>051-090-091-201600-
...NORTHEAST COLORADO...

CITY           SKY/WX    TMP DP  RH WIND       PRES   REMARKS
GREELEY ARPT   SUNNY     54  41  62 CALM      30.07S
AKRON          CLOUDY    56  43  61 CALM      30.05S
BURLINGTON     PTSUNNY   53  47  79 N10       30.02R
WRAY           MOSUNNY   52  46  79 CALM      30.03S
STERLING       CLOUDY    59  46  63 W6        30.03F
HOLYOKE        MOSUNNY   59  46  63 CALM      30.03F
FORT MORGAN    PTSUNNY   49  44  82 CALM      30.06S
$$

COZ086-089-092>099-201600-
...SOUTHEAST COLORADO...

CITY           SKY/WX    TMP DP  RH WIND       PRES   REMARKS
PUEBLO         CLOUDY    59  42  53 SW7       30.04R
LA JUNTA       CLOUDY    58  45  62 NW15      30.01S
LAMAR          CLOUDY    55  46  71 NW9       29.96R
SPRINGFIELD      N/A     61  45  55 W14       29.99S
$$



USA.gov is the U.S. government's official web portal to all federal, state and local government web resources and services.